sat.trackr.live / text

‹ back to catalog

STARLINK-5678

NORAD 55460 · 2023-015M

PAYLOAD ACTIVE UNKNOWN

§ Identity

Operator
Country
US
Launch date
2023-02-02
Launch site
AFETR
Launch vehicle
Mass (kg)
RCS (m²)

Purposes: comms

External: N2YO · Heavens-Above · Gunter

§ Orbital elements

Epoch: 2026-05-25T00:20:36.302784Z

Period
94.27 min
Inclination
43.0031°
Eccentricity
0.0001323
Mean motion
15.27576896 rev/d
Perigee alt
482.2 km
Apogee alt
484.0 km
Semi-major
6,861.2 km
B*
6.9663e-7
RAAN
257.7893°
Arg perigee
268.2293°
Mean anomaly
91.8407°
Rev number
18,239

§ Raw data

STARLINK-56781 55460U 23015M   26145.01430906 -.00000243  00000+0  69663-6 0  99972 55460  43.0031 257.7893 0001323 268.2293  91.8407 15.27576896182393

JSON: /api/v1/satellites/55460 · /tle

For live sub-satellite position, see the globe view (requires WebGL).

§ Visibility from observer

Set your observer location to see the next 7 days of passes ≥ 10°. The values pass through the URL so the page stays shareable.

No JS? Fill the form by hand. The geolocation button needs JavaScript.